| time (UTC) | temp C | wind direction | speed KPH | gust KPH | rain 1hr cm | rain 24hr cm | rain mn cm | humidity % | barometer mb |
| 20260901191537 | 33 | 250 | 1.6 | 9.7 | 0.00 | 0.20 | 0.05 | 63 | 1013.4 |
| 20260901190026 | 33 | 242 | 1.6 | 6.4 | 0.00 | 0.20 | 0.05 | 66 | 1013.4 |
| 20260901184521 | 33 | 261 | 1.6 | 12.9 | 0.00 | 0.20 | 0.05 | 66 | 1013.5 |
| 20260901183031 | 32 | 188 | 4.8 | 11.3 | 0.00 | 0.20 | 0.05 | 68 | 1013.7 |
| 20260901181519 | 32 | 205 | 1.6 | 8.0 | 0.00 | 0.20 | 0.05 | 69 | 1013.9 |
| 20260901180018 | 32 | 186 | 0.0 | 9.7 | 0.00 | 0.20 | 0.05 | 69 | 1013.8 |
| 20260901174515 | 32 | 242 | 0.0 | 8.0 | 0.00 | 0.20 | 0.05 | 71 | 1013.9 |
| 20260901173011 | 32 | 194 | 3.2 | 9.7 | 0.00 | 0.20 | 0.05 | 72 | 1013.9 |
| 20260901171509 | 31 | 192 | 3.2 | 9.7 | 0.00 | 0.20 | 0.05 | 74 | 1014.1 |
| 20260901170008 | 31 | 177 | 1.6 | 11.3 | 0.00 | 0.20 | 0.05 | 74 | 1014.1 |
| 20260901164506 | 31 | 232 | 3.2 | 9.7 | 0.00 | 0.20 | 0.05 | 74 | 1014.2 |
| 20260901163002 | 30 | 245 | 3.2 | 8.0 | 0.00 | 0.20 | 0.05 | 77 | 1014.3 |
| 20260901161503 | 29 | 187 | 1.6 | 9.7 | 0.00 | 0.20 | 0.05 | 77 | 1014.3 |
| 20260901154617 | 29 | 232 | 0.0 | 6.4 | 0.00 | 0.30 | 0.05 | 78 | 1014.5 |
| 20260901153103 | 28 | 216 | 0.0 | 4.8 | 0.00 | 0.30 | 0.05 | 79 | 1014.4 |
| 20260901151550 | 28 | 238 | 0.0 | 8.0 | 0.00 | 0.30 | 0.05 | 80 | 1014.4 |
| 20260901150055 | 27 | 283 | 0.0 | 4.8 | 0.00 | 0.30 | 0.05 | 81 | 1014.3 |
| 20260901144545 | 27 | 200 | 0.0 | 4.8 | 0.00 | 0.30 | 0.05 | 82 | 1014.3 |
| 20260901143042 | 26 | 237 | 0.0 | 9.7 | 0.00 | 0.30 | 0.05 | 83 | 1014.2 |
| 20260901141548 | 26 | 233 | 0.0 | 4.8 | 0.00 | 0.30 | 0.05 | 84 | 1014.2 |
| 20260901140034 | 25 | 360 | 1.6 | 9.7 | 0.00 | 0.30 | 0.05 | 86 | 1014.3 |
| 20260901134535 | 25 | 297 | 0.0 | 8.0 | 0.00 | 0.30 | 0.05 | 89 | 1014.3 |
| 20260901133034 | 24 | 265 | 1.6 | 6.4 | 0.00 | 0.30 | 0.05 | 90 | 1014.4 |
| 20260901131533 | 23 | 194 | 0.0 | 4.8 | 0.00 | 0.30 | 0.05 | 91 | 1014.5 |
| 20260901130033 | 23 | 196 | 0.0 | 3.2 | 0.00 | 0.30 | 0.05 | 92 | 1014.6 |
| 20260901124540 | 23 | 197 | 0.0 | 0.0 | 0.00 | 0.38 | 0.05 | 92 | 1014.5 |
| 20260901123031 | 23 | 197 | 0.0 | 0.0 | 0.00 | 0.38 | 0.05 | 93 | 1014.4 |
| 20260901121529 | 23 | 197 | 0.0 | 4.8 | 0.00 | 0.38 | 0.05 | 93 | 1014.3 |
| 20260901120028 | 23 | 198 | 0.0 | 0.0 | 0.03 | 0.38 | 0.05 | 93 | 1014.2 |
| 20260901114527 | 23 | 198 | 0.0 | 0.0 | 0.03 | 0.38 | 0.05 | 93 | 1013.9 |
| 20260901113025 | 23 | 198 | 0.0 | 0.0 | 0.03 | 0.38 | 0.05 | 92 | 1013.8 |
| 20260901111522 | 23 | 198 | 0.0 | 0.0 | 0.00 | 0.36 | 0.03 | 91 | 1013.6 |
| 20260901110020 | 23 | 198 | 0.0 | 0.0 | 0.00 | 0.36 | 0.03 | 90 | 1013.4 |
| 20260901104520 | 23 | 197 | 0.0 | 4.8 | 0.00 | 0.36 | 0.03 | 90 | 1013.3 |
| 20260901103020 | 23 | 196 | 0.0 | 4.8 | 0.00 | 0.36 | 0.03 | 90 | 1013.1 |
| 20260901101518 | 23 | 201 | 0.0 | 0.0 | 0.00 | 0.36 | 0.03 | 90 | 1013.2 |
| 20260901100017 | 24 | 223 | 0.0 | 3.2 | 0.03 | 0.36 | 0.03 | 89 | 1013.1 |
| 20260901094521 | 24 | 223 | 0.0 | 1.6 | 0.03 | 0.36 | 0.03 | 89 | 1013.3 |
| 20260901093015 | 24 | 214 | 0.0 | 0.0 | 0.03 | 0.36 | 0.03 | 88 | 1013.4 |
| 20260901091513 | 24 | 214 | 0.0 | 3.2 | 0.03 | 0.36 | 0.03 | 87 | 1013.2 |
| 20260901090012 | 25 | 217 | 0.0 | 0.0 | 0.00 | 0.33 | 0.00 | 87 | 1013.2 |
| 20260901084512 | 25 | 217 | 0.0 | 4.8 | 0.00 | 0.33 | 0.00 | 86 | 1013.0 |
| 20260901083011 | 25 | 247 | 0.0 | 6.4 | 0.00 | 0.33 | 0.00 | 85 | 1013.1 |
| 20260901081510 | 25 | 265 | 0.0 | 6.4 | 0.00 | 0.33 | 0.00 | 84 | 1013.1 |
| 20260901080010 | 25 | 240 | 1.6 | 9.7 | 0.00 | 0.33 | 0.00 | 83 | 1013.0 |
| 20260901074510 | 25 | 229 | 1.6 | 8.0 | 0.00 | 0.33 | 0.00 | 83 | 1013.1 |
| 20260901073009 | 25 | 234 | 0.0 | 6.4 | 0.00 | 0.33 | 0.00 | 83 | 1013.0 |
| 20260901071508 | 25 | 242 | 1.6 | 6.4 | 0.00 | 0.33 | 0.00 | 83 | 1013.0 |
| 20260901070007 | 25 | 207 | 0.0 | 4.8 | 0.00 | 0.33 | 0.00 | 83 | 1013.0 |
| 20260901064515 | 25 | 244 | 1.6 | 9.7 | 0.00 | 0.33 | 0.00 | 83 | 1013.0 |
| 20260901063014 | 25 | 250 | 1.6 | 12.9 | 0.00 | 0.33 | 0.00 | 84 | 1012.9 |
| 20260901061503 | 25 | 206 | 3.2 | 8.0 | 0.00 | 0.33 | 0.00 | 85 | 1012.7 |
| 20260901060101 | 25 | 202 | 3.2 | 8.0 | 0.00 | 0.33 | 0.00 | 87 | 1012.8 |
| 20260901054559 | 24 | 190 | 1.6 | 8.0 | 0.00 | 0.33 | 0.00 | 89 | 1012.8 |
| 20260901053103 | 24 | 188 | 1.6 | 8.0 | 0.00 | 0.33 | 0.00 | 91 | 1012.9 |
| 20260901051555 | 24 | 195 | 0.0 | 4.8 | 0.00 | 0.33 | 0.00 | 91 | 1012.9 |
| 20260901050053 | 24 | 195 | 0.0 | 4.8 | 0.00 | 0.33 | 0.00 | 92 | 1013.0 |
| 20260901044557 | 24 | 197 | 0.0 | 0.0 | 0.00 | 0.33 | 0.33 | 90 | 1012.9 |
| 20260901043052 | 25 | 198 | 0.0 | 0.0 | 0.00 | 0.33 | 0.33 | 90 | 1013.1 |
| 20260901041651 | 25 | 197 | 0.0 | 8.0 | 0.00 | 0.33 | 0.33 | 91 | 1013.1 |
| 20260901040050 | 24 | 193 | 1.6 | 6.4 | 0.00 | 0.33 | 0.33 | 92 | 1013.1 |
| 20260901034551 | 25 | 209 | 0.0 | 3.2 | 0.00 | 0.33 | 0.33 | 93 | 1013.1 |
| 20260901033050 | 24 | 209 | 0.0 | 6.4 | 0.00 | 0.33 | 0.33 | 94 | 1013.0 |
| 20260901031549 | 24 | 191 | 0.0 | 3.2 | 0.00 | 0.33 | 0.33 | 94 | 1013.1 |
| 20260901030049 | 24 | 201 | 0.0 | 4.8 | 0.00 | 0.33 | 0.33 | 95 | 1013.1 |
| 20260901024549 | 24 | 202 | 0.0 | 1.6 | 0.00 | 0.33 | 0.33 | 94 | 1013.1 |
| 20260901023048 | 24 | 183 | 0.0 | 4.8 | 0.00 | 0.33 | 0.33 | 94 | 1013.2 |
| 20260901021547 | 24 | 179 | 0.0 | 4.8 | 0.00 | 0.33 | 0.33 | 95 | 1013.1 |
| 20260901020051 | 24 | 195 | 0.0 | 1.6 | 0.00 | 0.33 | 0.33 | 94 | 1013.1 |
| 20260901014547 | 23 | 206 | 0.0 | 0.0 | 0.00 | 0.38 | 0.33 | 94 | 1013.1 |
| 20260901013053 | 23 | 206 | 0.0 | 0.0 | 0.00 | 0.38 | 0.33 | 94 | 1013.0 |
| 20260901011545 | 24 | 206 | 0.0 | 0.0 | 0.00 | 0.38 | 0.33 | 93 | 1013.0 |
| 20260901010046 | 24 | 206 | 0.0 | 0.0 | 0.00 | 0.38 | 0.33 | 93 | 1012.7 |
| 20260901004544 | 25 | 206 | 0.0 | 0.0 | 0.00 | 0.38 | 0.33 | 92 | 1012.8 |
| 20260901003044 | 25 | 206 | 0.0 | 0.0 | 0.00 | 0.38 | 0.33 | 92 | 1012.8 |
| 20260901001544 | 25 | 206 | 0.0 | 0.0 | 0.08 | 0.38 | 0.33 | 91 | 1012.7 |
| 20260901000044 | 25 | 207 | 0.0 | 3.2 | 0.08 | 0.38 | 0.33 | 91 | 1012.2 |
| 20260831234550 | 26 | 183 | 0.0 | 3.2 | 0.08 | 0.38 | 0.33 | 90 | 1012.1 |
| 20260831233047 | 26 | 202 | 0.0 | 3.2 | 0.08 | 0.38 | 0.33 | 90 | 1012.1 |
| 20260831231541 | 26 | 193 | 0.0 | 0.0 | 0.08 | 0.30 | 0.25 | 90 | 1013.3 |
| 20260831230043 | 27 | 193 | 0.0 | 0.0 | 0.08 | 0.30 | 0.25 | 89 | 1012.8 |
| 20260831224541 | 27 | 193 | 0.0 | 0.0 | 0.08 | 0.36 | 0.25 | 85 | 1012.1 |
| 20260831223051 | 28 | 193 | 0.0 | 0.0 | 0.08 | 0.36 | 0.25 | 79 | 1012.2 |
| 20260831221540 | 30 | 193 | 0.0 | 3.2 | 0.00 | 0.28 | 0.18 | 70 | 1012.4 |
| 20260831220042 | 31 | 207 | 0.0 | 3.2 | 0.00 | 0.28 | 0.18 | 65 | 1012.2 |
| 20260831214554 | 31 | 254 | 1.6 | 9.7 | 0.00 | 0.28 | 0.18 | 65 | 1012.0 |
| 20260831213038 | 31 | 193 | 0.0 | 9.7 | 0.00 | 0.28 | 0.18 | 65 | 1012.2 |
| 20260831211538 | 31 | 163 | 1.6 | 9.7 | 0.00 | 0.28 | 0.18 | 61 | 1012.2 |
| 20260831210039 | 32 | 169 | 0.0 | 4.8 | 0.00 | 0.28 | 0.18 | 64 | 1012.3 |
| 20260831204534 | 32 | 213 | 0.0 | 8.0 | 0.00 | 0.30 | 0.18 | 61 | 1012.4 |
| 20260831203031 | 31 | 240 | 0.0 | 8.0 | 0.00 | 0.30 | 0.18 | 63 | 1012.6 |
| 20260831201531 | 31 | 229 | 1.6 | 6.4 | 0.00 | 0.30 | 0.18 | 61 | 1012.6 |
| 20260831200030 | 32 | 115 | 3.2 | 12.9 | 0.00 | 0.30 | 0.18 | 62 | 1012.5 |
| 20260831194530 | 31 | 184 | 6.4 | 19.3 | 0.00 | 0.30 | 0.18 | 63 | 1012.5 |
| 20260831193046 | 31 | 194 | 4.8 | 17.7 | 0.00 | 0.30 | 0.18 | 61 | 1012.5 |